Strona główna
METAR-TAF:

METAR-TAF

Lotnisko :

Melun, Francja

Szerokość geograficzna: 48-37N, Długość geograficzna: 002-41E, wysokość: 95 m

Aktualna obserwacja pogody

Raport powstał 26 minut temu, godzina 22:30 UTC
Wiatr 11 kt od południowo-południowy wschód
Temperatura 6°C
Wilgotność 81%
Ciśnienie 997 hPa
Widzialność 10 km lub więcej
Brak chmur poniżej 1500 m i brak chmur cumulonimbus

METAR: LFPM 132230Z AUTO 15011KT CAVOK 06/03 Q0997

czas: 23:56 (22:56 UTC)


TAF: brakujący

Obserwacja i prognoza pogody dla ponad 4000 lotnisk (raport METAR i TAF).

Dostępne stacje oznaczono żółtymi i czerwonymi punktami na mapie.

Najedź kursorem aby zobaczyć nazwę stacji.

Kliknij aby zobaczyć obserwacje i prognozy pogody.

Aby zmienić mapę: kliknij na zielony przycisk z czarnym krzyżykiem, aby powiększyć; na zielony przycisk z myślnikiem, aby pomniejszyć; na zielone strzałki, aby przejść do map sąsiednich.


METAR-TAF: